This is the latest recevied weather packets stored in our database for station/object KB0RPJ. If no packets are shown the sender has not sent any weather packets the latest 10 day(s).
| Time | Temp. | Humidity | Pressure | Rain* | Wind** | Luminosity | Snow |
|---|---|---|---|---|---|---|---|
| 1777851005 | 23.33° C | 34% | 1008.1 hPa | 0 mm | - | 112 W/m² | - |
| 1777850721 | 23.89° C | 33% | 1008.1 hPa | 0 mm | - | 173 W/m² | - |
| 1777850406 | 23.89° C | 34% | 1008 hPa | 0 mm | - | 167 W/m² | - |
| 1777850104 | 23.89° C | 33% | 1008.1 hPa | 0 mm | - | 194 W/m² | - |
| 1777849806 | 24.44° C | 34% | 1008.2 hPa | 0 mm | - | 178 W/m² | - |
| 1777849505 | 24.44° C | 34% | 1008.2 hPa | 0 mm | - | 194 W/m² | - |
| 1777849217 | 24.44° C | 34% | 1008.2 hPa | 0 mm | - | 197 W/m² | - |
| 1777848905 | 24.44° C | 34% | 1008.2 hPa | 0 mm | - | 327 W/m² | - |
| 1777848607 | 24.44° C | 35% | 1008.2 hPa | 0 mm | - | 386 W/m² | - |
| 1777848304 | 24.44° C | 32% | 1008.2 hPa | 0 mm | - | 399 W/m² | - |
| 1777848005 | 24.44° C | 33% | 1008.3 hPa | 0 mm | - | 295 W/m² | - |
| 1777847705 | 24.44° C | 33% | 1008.2 hPa | 0 mm | - | 293 W/m² | - |
| 1777847406 | 24.44° C | 34% | 1008.3 hPa | 0 mm | - | 483 W/m² | - |
| 1777847104 | 24.44° C | 35% | 1008.2 hPa | 0 mm | - | 382 W/m² | - |
| 1777846805 | 24.44° C | 34% | 1008.3 hPa | 0 mm | - | 469 W/m² | - |
| 1777846505 | 24.44° C | 34% | 1008.4 hPa | 0 mm | - | 479 W/m² | - |
| 1777846205 | 23.89° C | 34% | 1008.3 hPa | 0 mm | - | 508 W/m² | - |
| 1777845904 | 23.89° C | 33% | 1008.4 hPa | 0 mm | - | 570 W/m² | - |
| 1777845605 | 24.44° C | 35% | 1008.4 hPa | 0 mm | - | 261 W/m² | - |
| 1777845304 | 24.44° C | 35% | 1008.4 hPa | 0 mm | - | 441 W/m² | - |
| 1777845005 | 24.44° C | 35% | 1008.5 hPa | 0 mm | - | 460 W/m² | - |
| 1777844704 | 24.44° C | 35% | 1008.6 hPa | 0 mm | - | 416 W/m² | - |
| 1777844406 | 23.89° C | 36% | 1008.6 hPa | 0 mm | - | 531 W/m² | - |
| 1777844104 | 24.44° C | 34% | 1008.5 hPa | 0 mm | - | 537 W/m² | - |
| 1777843806 | 23.89° C | 35% | 1008.5 hPa | 0 mm | - | 582 W/m² | - |
* Rain latest hour (hover to see other rain measurements)
** Current wind speed in m/s (hover to see current wind gust speed)